Year,Month,Day,Hour,Minute,Value (Times are PST for temperature in C)
2016,03,28,00,00,6.40
2016,03,28,00,01,6.40
2016,03,28,00,02,6.40
2016,03,28,00,03,6.40
2016,03,28,00,04,6.40
2016,03,28,00,05,6.40
2016,03,28,00,06,6.40
2016,03,28,00,07,6.40
2016,03,28,00,08,6.40
2016,03,28,00,09,6.40
2016,03,28,00,10,6.40
2016,03,28,00,11,6.40
2016,03,28,00,12,6.40
2016,03,28,00,13,6.30
2016,03,28,00,14,6.30
2016,03,28,00,15,6.30
2016,03,28,00,16,6.30
2016,03,28,00,17,6.30
2016,03,28,00,18,6.30
2016,03,28,00,19,6.30
2016,03,28,00,20,6.30
2016,03,28,00,21,6.30
2016,03,28,00,22,6.30
2016,03,28,00,23,6.30
2016,03,28,00,24,6.30
2016,03,28,00,25,6.30
2016,03,28,00,26,6.30
2016,03,28,00,27,6.30
2016,03,28,00,28,6.30
2016,03,28,00,29,6.30
2016,03,28,00,30,6.30
2016,03,28,00,31,6.30
2016,03,28,00,32,6.30
2016,03,28,00,33,6.30
2016,03,28,00,34,6.30
2016,03,28,00,35,6.30
2016,03,28,00,36,6.30
2016,03,28,00,37,6.20
2016,03,28,00,38,6.20
2016,03,28,00,39,6.20
2016,03,28,00,40,6.20
2016,03,28,00,41,6.20
2016,03,28,00,42,6.20
2016,03,28,00,43,6.20
2016,03,28,00,44,6.20
2016,03,28,00,45,6.20
2016,03,28,00,46,6.20
2016,03,28,00,47,6.20
2016,03,28,00,48,6.20
2016,03,28,00,49,6.20
2016,03,28,00,50,6.20
2016,03,28,00,51,6.20
2016,03,28,00,52,6.20
2016,03,28,00,53,6.10
2016,03,28,00,54,6.10
2016,03,28,00,55,6.10
2016,03,28,00,56,6.10
2016,03,28,00,57,6.10
2016,03,28,00,58,6.20
2016,03,28,00,59,6.20
2016,03,28,01,00,6.20
2016,03,28,01,01,6.10
2016,03,28,01,02,6.10
2016,03,28,01,03,6.20
2016,03,28,01,04,6.20
2016,03,28,01,05,6.20
2016,03,28,01,06,6.20
2016,03,28,01,07,6.20
2016,03,28,01,08,6.20
2016,03,28,01,09,6.20
2016,03,28,01,10,6.20
2016,03,28,01,11,6.20
2016,03,28,01,12,6.20
2016,03,28,01,13,6.20
2016,03,28,01,14,6.20
2016,03,28,01,15,6.20
2016,03,28,01,16,6.20
2016,03,28,01,17,6.20
2016,03,28,01,18,6.20
2016,03,28,01,19,6.20
2016,03,28,01,20,6.10
2016,03,28,01,21,6.10
2016,03,28,01,22,6.10
2016,03,28,01,23,6.10
2016,03,28,01,24,6.10
2016,03,28,01,25,6.10
2016,03,28,01,26,6.10
2016,03,28,01,27,6.10
2016,03,28,01,28,6.10
2016,03,28,01,29,6.10
2016,03,28,01,30,6.10
2016,03,28,01,31,6.10
2016,03,28,01,32,6.10
2016,03,28,01,33,6.10
2016,03,28,01,34,6.10
2016,03,28,01,35,6.10
2016,03,28,01,36,6.10
2016,03,28,01,37,6.10
2016,03,28,01,38,6.10
2016,03,28,01,39,6.10
2016,03,28,01,40,6.10
2016,03,28,01,41,6.10
2016,03,28,01,42,6.10
2016,03,28,01,43,6.10
2016,03,28,01,44,6.10
2016,03,28,01,45,6.20
2016,03,28,01,46,6.20
2016,03,28,01,47,6.20
2016,03,28,01,48,6.20
2016,03,28,01,49,6.20
2016,03,28,01,50,6.20
2016,03,28,01,51,6.20
2016,03,28,01,52,6.20
2016,03,28,01,53,6.20
2016,03,28,01,54,6.20
2016,03,28,01,55,6.20
2016,03,28,01,56,6.20
2016,03,28,01,57,6.20
2016,03,28,01,58,6.20
2016,03,28,01,59,6.10
2016,03,28,02,00,6.10
2016,03,28,02,01,6.10
2016,03,28,02,02,6.10
2016,03,28,02,03,6.00
2016,03,28,02,04,6.00
2016,03,28,02,05,6.00
2016,03,28,02,06,6.00
2016,03,28,02,07,6.00
2016,03,28,02,08,6.00
2016,03,28,02,09,5.90
2016,03,28,02,10,5.90
2016,03,28,02,11,5.90
2016,03,28,02,12,5.90
2016,03,28,02,13,5.90
2016,03,28,02,14,5.90
2016,03,28,02,15,5.80
2016,03,28,02,16,5.90
2016,03,28,02,17,5.90
2016,03,28,02,18,5.90
2016,03,28,02,19,5.90
2016,03,28,02,20,6.00
2016,03,28,02,21,6.00
2016,03,28,02,22,6.00
2016,03,28,02,23,6.00
2016,03,28,02,24,6.00
2016,03,28,02,25,6.00
2016,03,28,02,26,5.90
2016,03,28,02,27,5.90
2016,03,28,02,28,5.90
2016,03,28,02,29,5.90
2016,03,28,02,30,5.90
2016,03,28,02,31,5.80
2016,03,28,02,32,5.80
2016,03,28,02,33,5.80
2016,03,28,02,34,5.70
2016,03,28,02,35,5.70
2016,03,28,02,36,5.70
2016,03,28,02,37,5.70
2016,03,28,02,38,5.70
2016,03,28,02,39,5.70
2016,03,28,02,40,5.60
2016,03,28,02,41,5.60
2016,03,28,02,42,5.50
2016,03,28,02,43,5.50
2016,03,28,02,44,5.50
2016,03,28,02,45,5.40
2016,03,28,02,46,5.40
2016,03,28,02,47,5.30
2016,03,28,02,48,5.30
2016,03,28,02,49,5.30
2016,03,28,02,50,5.20
2016,03,28,02,51,5.20
2016,03,28,02,52,5.10
2016,03,28,02,53,5.10
2016,03,28,02,54,5.10
2016,03,28,02,55,5.10
2016,03,28,02,56,5.10
2016,03,28,02,57,5.00
2016,03,28,02,58,4.90
2016,03,28,02,59,4.90
2016,03,28,03,00,4.90
2016,03,28,03,01,4.90
2016,03,28,03,02,4.80
2016,03,28,03,03,4.80
2016,03,28,03,04,4.80
2016,03,28,03,05,4.80
2016,03,28,03,06,4.80
2016,03,28,03,07,4.70
2016,03,28,03,08,4.70
2016,03,28,03,09,4.70
2016,03,28,03,10,4.70
2016,03,28,03,11,4.60
2016,03,28,03,12,4.60
2016,03,28,03,13,4.60
2016,03,28,03,14,4.60
2016,03,28,03,15,4.60
2016,03,28,03,16,4.60
2016,03,28,03,17,4.50
2016,03,28,03,18,4.50
2016,03,28,03,19,4.50
2016,03,28,03,20,4.50
2016,03,28,03,21,4.50
2016,03,28,03,22,4.40
2016,03,28,03,23,4.40
2016,03,28,03,24,4.40
2016,03,28,03,25,4.40
2016,03,28,03,26,4.40
2016,03,28,03,27,4.40
2016,03,28,03,28,4.40
2016,03,28,03,29,4.40
2016,03,28,03,30,4.40
2016,03,28,03,31,4.30
2016,03,28,03,32,4.30
2016,03,28,03,33,4.30
2016,03,28,03,34,4.30
2016,03,28,03,35,4.20
2016,03,28,03,36,4.20
2016,03,28,03,37,4.20
2016,03,28,03,38,4.20
2016,03,28,03,39,4.20
2016,03,28,03,40,4.10
2016,03,28,03,41,4.10
2016,03,28,03,42,4.10
2016,03,28,03,43,4.10
2016,03,28,03,44,4.00
2016,03,28,03,45,4.00
2016,03,28,03,46,4.00
2016,03,28,03,47,4.00
2016,03,28,03,48,4.00
2016,03,28,03,49,4.00
2016,03,28,03,50,4.00
2016,03,28,03,51,4.00
2016,03,28,03,52,4.00
2016,03,28,03,53,4.00
2016,03,28,03,54,3.90
2016,03,28,03,55,3.90
2016,03,28,03,56,3.90
2016,03,28,03,57,3.90
2016,03,28,03,58,3.80
2016,03,28,03,59,3.80
2016,03,28,04,00,3.80
2016,03,28,04,01,3.80
2016,03,28,04,02,3.80
2016,03,28,04,03,3.80
2016,03,28,04,04,3.80
2016,03,28,04,05,3.80
2016,03,28,04,06,3.70
2016,03,28,04,07,3.70
2016,03,28,04,08,3.70
2016,03,28,04,09,3.70
2016,03,28,04,10,3.70
2016,03,28,04,11,3.60
2016,03,28,04,12,3.60
2016,03,28,04,13,3.60
2016,03,28,04,14,3.60
2016,03,28,04,15,3.60
2016,03,28,04,16,3.50
2016,03,28,04,17,3.50
2016,03,28,04,18,3.50
2016,03,28,04,19,3.50
2016,03,28,04,20,3.50
2016,03,28,04,21,3.50
2016,03,28,04,22,3.50
2016,03,28,04,23,3.50
2016,03,28,04,24,3.50
2016,03,28,04,25,3.40
2016,03,28,04,26,3.40
2016,03,28,04,27,3.40
2016,03,28,04,28,3.40
2016,03,28,04,29,3.40
2016,03,28,04,30,3.40
2016,03,28,04,31,3.30
2016,03,28,04,32,3.30
2016,03,28,04,33,3.30
2016,03,28,04,34,3.30
2016,03,28,04,35,3.30
2016,03,28,04,36,3.30
2016,03,28,04,37,3.30
2016,03,28,04,38,3.30
2016,03,28,04,39,3.30
2016,03,28,04,40,3.30
2016,03,28,04,41,3.20
2016,03,28,04,42,3.20
2016,03,28,04,43,3.20
2016,03,28,04,44,3.20
2016,03,28,04,45,3.20
2016,03,28,04,46,3.20
2016,03,28,04,47,3.20
2016,03,28,04,48,3.10
2016,03,28,04,49,3.10
2016,03,28,04,50,3.10
2016,03,28,04,51,3.10
2016,03,28,04,52,3.10
2016,03,28,04,53,3.10
2016,03,28,04,54,3.10
2016,03,28,04,55,3.10
2016,03,28,04,56,3.10
2016,03,28,04,57,3.00
2016,03,28,04,58,2.90
2016,03,28,04,59,2.90
2016,03,28,05,00,2.90
2016,03,28,05,01,2.90
2016,03,28,05,02,2.90
2016,03,28,05,03,2.90
2016,03,28,05,04,2.90
2016,03,28,05,05,2.90
2016,03,28,05,06,2.80
2016,03,28,05,07,2.80
2016,03,28,05,08,2.80
2016,03,28,05,09,2.80
2016,03,28,05,10,2.80
2016,03,28,05,11,2.80
2016,03,28,05,12,2.80
2016,03,28,05,13,2.70
2016,03,28,05,14,2.70
2016,03,28,05,15,2.70
2016,03,28,05,16,2.70
2016,03,28,05,17,2.70
2016,03,28,05,18,2.70
2016,03,28,05,19,2.70
2016,03,28,05,20,2.70
2016,03,28,05,21,2.70
2016,03,28,05,22,2.70
2016,03,28,05,23,2.70
2016,03,28,05,24,2.70
2016,03,28,05,25,2.60
2016,03,28,05,26,2.60
2016,03,28,05,27,2.60
2016,03,28,05,28,2.60
2016,03,28,05,29,2.60
2016,03,28,05,30,2.60
2016,03,28,05,31,2.60
2016,03,28,05,32,2.60
2016,03,28,05,33,2.60
2016,03,28,05,34,2.60
2016,03,28,05,35,2.60
2016,03,28,05,36,2.60
2016,03,28,05,37,2.60
2016,03,28,05,38,2.60
2016,03,28,05,39,2.60
2016,03,28,05,40,2.60
2016,03,28,05,41,2.60
2016,03,28,05,42,2.60
2016,03,28,05,43,2.60
2016,03,28,05,44,2.60
2016,03,28,05,45,2.60
2016,03,28,05,46,2.50
2016,03,28,05,47,2.50
2016,03,28,05,48,2.50
2016,03,28,05,49,2.50
2016,03,28,05,50,2.50
2016,03,28,05,51,2.50
2016,03,28,05,52,2.50
2016,03,28,05,53,2.50
2016,03,28,05,54,2.50
2016,03,28,05,55,2.50
2016,03,28,05,56,2.40
2016,03,28,05,57,2.40
2016,03,28,05,58,2.40
2016,03,28,05,59,2.40
2016,03,28,06,00,2.30
2016,03,28,06,01,2.30
2016,03,28,06,02,2.30
2016,03,28,06,03,2.30
2016,03,28,06,04,2.20
2016,03,28,06,05,2.20
2016,03,28,06,06,2.20
2016,03,28,06,07,2.20
2016,03,28,06,08,2.20
2016,03,28,06,09,2.20
2016,03,28,06,10,2.20
2016,03,28,06,11,2.20
2016,03,28,06,12,2.20
2016,03,28,06,13,2.20
2016,03,28,06,14,2.20
2016,03,28,06,15,2.20
2016,03,28,06,16,2.20
2016,03,28,06,17,2.20
2016,03,28,06,18,2.20
2016,03,28,06,19,2.20
2016,03,28,06,20,2.10
2016,03,28,06,21,2.10
2016,03,28,06,22,2.10
2016,03,28,06,23,2.10
2016,03,28,06,24,2.10
2016,03,28,06,25,2.10
2016,03,28,06,26,2.10
2016,03,28,06,27,2.10
2016,03,28,06,28,2.10
2016,03,28,06,29,2.10
2016,03,28,06,30,2.10
2016,03,28,06,31,2.10
2016,03,28,06,32,2.10
2016,03,28,06,33,2.10
2016,03,28,06,34,2.10
2016,03,28,06,35,2.10
2016,03,28,06,36,2.10
2016,03,28,06,37,2.10
2016,03,28,06,38,2.10
2016,03,28,06,39,2.10
2016,03,28,06,40,2.10
2016,03,28,06,41,2.10
2016,03,28,06,42,2.10
2016,03,28,06,43,2.00
2016,03,28,06,44,2.00
2016,03,28,06,45,2.00
2016,03,28,06,46,2.00
2016,03,28,06,47,2.00
2016,03,28,06,48,1.90
2016,03,28,06,49,1.90
2016,03,28,06,50,1.90
2016,03,28,06,51,1.90
2016,03,28,06,52,1.90
2016,03,28,06,53,1.80
2016,03,28,06,54,1.80
2016,03,28,06,55,1.80
2016,03,28,06,56,1.80
2016,03,28,06,57,1.80
2016,03,28,06,58,1.80
2016,03,28,06,59,1.80
2016,03,28,07,00,1.80
2016,03,28,07,01,1.80
2016,03,28,07,02,1.80
2016,03,28,07,03,1.80
2016,03,28,07,04,1.80
2016,03,28,07,05,1.80
2016,03,28,07,06,1.80
2016,03,28,07,07,1.80
2016,03,28,07,08,1.80
2016,03,28,07,09,1.80
2016,03,28,07,10,1.80
2016,03,28,07,11,1.80
2016,03,28,07,12,1.80
2016,03,28,07,13,1.80
2016,03,28,07,14,1.80
2016,03,28,07,15,1.80
2016,03,28,07,16,1.70
2016,03,28,07,17,1.70
2016,03,28,07,18,1.70
2016,03,28,07,19,1.70
2016,03,28,07,20,1.70
2016,03,28,07,21,1.70
2016,03,28,07,22,1.70
2016,03,28,07,23,1.70
2016,03,28,07,24,1.70
2016,03,28,07,25,1.70
2016,03,28,07,26,1.70
2016,03,28,07,27,1.70
2016,03,28,07,28,1.70
2016,03,28,07,29,1.60
2016,03,28,07,30,1.60
2016,03,28,07,31,1.60
2016,03,28,07,32,1.60
2016,03,28,07,33,1.60
2016,03,28,07,34,1.60
2016,03,28,07,35,1.60
2016,03,28,07,36,1.60
2016,03,28,07,37,1.60
2016,03,28,07,38,1.60
2016,03,28,07,39,1.60
2016,03,28,07,40,1.60
2016,03,28,07,41,1.60
2016,03,28,07,42,1.60
2016,03,28,07,43,1.60
2016,03,28,07,44,1.60
2016,03,28,07,45,1.60
2016,03,28,07,46,1.60
2016,03,28,07,47,1.60
2016,03,28,07,48,1.60
2016,03,28,07,49,1.60
2016,03,28,07,50,1.70
2016,03,28,07,51,1.70
2016,03,28,07,52,1.70
2016,03,28,07,53,1.70
2016,03,28,07,54,1.80
2016,03,28,07,55,1.80
2016,03,28,07,56,1.90
2016,03,28,07,57,2.00
2016,03,28,07,58,2.00
2016,03,28,07,59,2.10
2016,03,28,08,00,2.20
2016,03,28,08,01,2.30
2016,03,28,08,02,2.40
2016,03,28,08,03,2.50
2016,03,28,08,04,2.70
2016,03,28,08,05,2.70
2016,03,28,08,06,2.80
2016,03,28,08,07,2.90
2016,03,28,08,08,3.00
2016,03,28,08,09,3.10
2016,03,28,08,10,3.10
2016,03,28,08,11,3.10
2016,03,28,08,12,3.20
2016,03,28,08,13,3.20
2016,03,28,08,14,3.30
2016,03,28,08,15,3.30
2016,03,28,08,16,3.40
2016,03,28,08,17,3.50
2016,03,28,08,18,3.70
2016,03,28,08,19,3.80
2016,03,28,08,20,3.80
2016,03,28,08,21,3.80
2016,03,28,08,22,3.90
2016,03,28,08,23,4.00
2016,03,28,08,24,4.00
2016,03,28,08,25,4.00
2016,03,28,08,26,4.10
2016,03,28,08,27,4.20
2016,03,28,08,28,4.20
2016,03,28,08,29,4.40
2016,03,28,08,30,4.50
2016,03,28,08,31,4.60
2016,03,28,08,32,4.70
2016,03,28,08,33,4.80
2016,03,28,08,34,4.90
2016,03,28,08,35,5.00
2016,03,28,08,36,5.10
2016,03,28,08,37,5.20
2016,03,28,08,38,5.30
2016,03,28,08,39,5.30
2016,03,28,08,40,5.40
2016,03,28,08,41,5.50
2016,03,28,08,42,5.50
2016,03,28,08,43,5.60
2016,03,28,08,44,5.70
2016,03,28,08,45,5.70
2016,03,28,08,46,5.80
2016,03,28,08,47,5.80
2016,03,28,08,48,5.90
2016,03,28,08,49,6.00
2016,03,28,08,50,6.00
2016,03,28,08,51,6.10
2016,03,28,08,52,6.20
2016,03,28,08,53,6.20
2016,03,28,08,54,6.30
2016,03,28,08,55,6.30
2016,03,28,08,56,6.40
2016,03,28,08,57,6.50
2016,03,28,08,58,6.60
2016,03,28,08,59,6.60
2016,03,28,09,00,6.60
2016,03,28,09,01,6.70
2016,03,28,09,02,6.70
2016,03,28,09,03,6.80
2016,03,28,09,04,6.80
2016,03,28,09,05,6.90
2016,03,28,09,06,7.00
2016,03,28,09,07,7.10
2016,03,28,09,08,7.10
2016,03,28,09,09,7.20
2016,03,28,09,10,7.30
2016,03,28,09,11,7.30
2016,03,28,09,12,7.30
2016,03,28,09,13,7.30
2016,03,28,09,14,7.30
2016,03,28,09,15,7.40
2016,03,28,09,16,7.50
2016,03,28,09,17,7.50
2016,03,28,09,18,7.60
2016,03,28,09,19,7.60
2016,03,28,09,20,7.60
2016,03,28,09,21,7.70
2016,03,28,09,22,7.80
2016,03,28,09,23,7.80
2016,03,28,09,24,7.80
2016,03,28,09,25,7.80
2016,03,28,09,26,7.90
2016,03,28,09,27,8.00
2016,03,28,09,28,8.10
2016,03,28,09,29,8.20
2016,03,28,09,30,8.30
2016,03,28,09,31,8.40
2016,03,28,09,32,8.50
2016,03,28,09,33,8.50
2016,03,28,09,34,8.60
2016,03,28,09,35,8.60
2016,03,28,09,36,8.70
2016,03,28,09,37,8.70
2016,03,28,09,38,8.80
2016,03,28,09,39,8.90
2016,03,28,09,40,9.00
2016,03,28,09,41,9.10
2016,03,28,09,42,9.20
2016,03,28,09,43,9.30
2016,03,28,09,44,9.40
2016,03,28,09,45,9.40
2016,03,28,09,46,9.40
2016,03,28,09,47,9.30
2016,03,28,09,48,9.20
2016,03,28,09,49,9.30
2016,03,28,09,50,9.30
2016,03,28,09,51,9.40
2016,03,28,09,52,9.50
2016,03,28,09,53,9.60
2016,03,28,09,54,9.70
2016,03,28,09,55,9.70
2016,03,28,09,56,9.80
2016,03,28,09,57,9.90
2016,03,28,09,58,9.80
2016,03,28,09,59,9.80
2016,03,28,10,00,9.80
2016,03,28,10,01,9.80
2016,03,28,10,02,9.70
2016,03,28,10,03,9.60
2016,03,28,10,04,9.50
2016,03,28,10,05,9.40
2016,03,28,10,06,9.30
2016,03,28,10,07,9.20
2016,03,28,10,08,9.20
2016,03,28,10,09,9.20
2016,03,28,10,10,9.20
2016,03,28,10,11,9.20
2016,03,28,10,12,9.10
2016,03,28,10,13,9.00
2016,03,28,10,14,8.90
2016,03,28,10,15,8.90
2016,03,28,10,16,8.80
2016,03,28,10,17,8.80
2016,03,28,10,18,8.70
2016,03,28,10,19,8.70
2016,03,28,10,20,8.70
2016,03,28,10,21,8.70
2016,03,28,10,22,8.60
2016,03,28,10,23,8.60
2016,03,28,10,24,8.60
2016,03,28,10,25,8.60
2016,03,28,10,26,8.50
2016,03,28,10,27,8.50
2016,03,28,10,28,8.50
2016,03,28,10,29,8.50
2016,03,28,10,30,8.50
2016,03,28,10,31,8.50
2016,03,28,10,32,8.60
2016,03,28,10,33,8.60
2016,03,28,10,34,8.60
2016,03,28,10,35,8.70
2016,03,28,10,36,8.70
2016,03,28,10,37,8.80
2016,03,28,10,38,8.90
2016,03,28,10,39,9.00
2016,03,28,10,40,9.00
2016,03,28,10,41,9.10
2016,03,28,10,42,9.30
2016,03,28,10,43,9.50
2016,03,28,10,44,9.60
2016,03,28,10,45,9.70
2016,03,28,10,46,9.90
2016,03,28,10,47,9.90
2016,03,28,10,48,10.00
2016,03,28,10,49,10.00
2016,03,28,10,50,9.90
2016,03,28,10,51,9.90
2016,03,28,10,52,9.90
2016,03,28,10,53,9.90
2016,03,28,10,54,9.90
2016,03,28,10,55,10.10
2016,03,28,10,56,10.10
2016,03,28,10,57,10.10
2016,03,28,10,58,10.10
2016,03,28,10,59,10.10
2016,03,28,11,00,10.00
2016,03,28,11,01,9.90
2016,03,28,11,02,9.90
2016,03,28,11,03,9.90
2016,03,28,11,04,9.80
2016,03,28,11,05,9.70
2016,03,28,11,06,9.70
2016,03,28,11,07,9.70
2016,03,28,11,08,9.80
2016,03,28,11,09,9.90
2016,03,28,11,10,10.10
2016,03,28,11,11,10.30
2016,03,28,11,12,10.40
2016,03,28,11,13,10.50
2016,03,28,11,14,10.60
2016,03,28,11,15,10.70
2016,03,28,11,16,10.70
2016,03,28,11,17,10.80
2016,03,28,11,18,10.80
2016,03,28,11,19,10.80
2016,03,28,11,20,10.70
2016,03,28,11,21,10.70
2016,03,28,11,22,10.80
2016,03,28,11,23,10.80
2016,03,28,11,24,10.80
2016,03,28,11,25,10.80
2016,03,28,11,26,10.60
2016,03,28,11,27,10.60
2016,03,28,11,28,10.60
2016,03,28,11,29,10.70
2016,03,28,11,30,10.80
2016,03,28,11,31,10.90
2016,03,28,11,32,10.90
2016,03,28,11,33,10.90
2016,03,28,11,34,10.90
2016,03,28,11,35,10.90
2016,03,28,11,36,10.80
2016,03,28,11,37,10.70
2016,03,28,11,38,10.60
2016,03,28,11,39,10.50
2016,03,28,11,40,10.40
2016,03,28,11,41,10.40
2016,03,28,11,42,10.50
2016,03,28,11,43,10.60
2016,03,28,11,44,10.80
2016,03,28,11,45,10.90
2016,03,28,11,46,11.00
2016,03,28,11,47,11.10
2016,03,28,11,48,11.10
2016,03,28,11,49,11.10
2016,03,28,11,50,11.00
2016,03,28,11,51,10.90
2016,03,28,11,52,10.80
2016,03,28,11,53,10.70
2016,03,28,11,54,10.70
2016,03,28,11,55,10.80
2016,03,28,11,56,10.90
2016,03,28,11,57,11.00
2016,03,28,11,58,11.10
2016,03,28,11,59,10.90
2016,03,28,12,00,10.90
2016,03,28,12,01,10.90
2016,03,28,12,02,10.90
2016,03,28,12,03,10.90
2016,03,28,12,04,11.00
2016,03,28,12,05,11.10
2016,03,28,12,06,11.20
2016,03,28,12,07,11.30
2016,03,28,12,08,11.40
2016,03,28,12,09,11.40
2016,03,28,12,10,11.40
2016,03,28,12,11,11.40
2016,03,28,12,12,11.30
2016,03,28,12,13,11.10
2016,03,28,12,14,10.90
2016,03,28,12,15,10.90
2016,03,28,12,16,10.80
2016,03,28,12,17,10.90
2016,03,28,12,18,11.00
2016,03,28,12,19,11.10
2016,03,28,12,20,11.10
2016,03,28,12,21,11.10
2016,03,28,12,22,11.30
2016,03,28,12,23,11.30
2016,03,28,12,24,11.30
2016,03,28,12,25,11.30
2016,03,28,12,26,11.40
2016,03,28,12,27,11.40
2016,03,28,12,28,11.40
2016,03,28,12,29,11.40
2016,03,28,12,30,11.30
2016,03,28,12,31,11.30
2016,03,28,12,32,11.40
2016,03,28,12,33,11.50
2016,03,28,12,34,11.40
2016,03,28,12,35,11.30
2016,03,28,12,36,11.30
2016,03,28,12,37,11.20
2016,03,28,12,38,10.90
2016,03,28,12,39,10.60
2016,03,28,12,40,10.60
2016,03,28,12,41,10.60
2016,03,28,12,42,10.70
2016,03,28,12,43,10.80
2016,03,28,12,44,10.90
2016,03,28,12,45,11.00
2016,03,28,12,46,11.10
2016,03,28,12,47,10.90
2016,03,28,12,48,10.90
2016,03,28,12,49,10.90
2016,03,28,12,50,10.90
2016,03,28,12,51,11.00
2016,03,28,12,52,11.10
2016,03,28,12,53,10.90
2016,03,28,12,54,10.90
2016,03,28,12,55,10.80
2016,03,28,12,56,10.90
2016,03,28,12,57,10.90
2016,03,28,12,58,10.90
2016,03,28,12,59,11.10
2016,03,28,13,00,11.10
2016,03,28,13,01,11.10
2016,03,28,13,02,11.10
2016,03,28,13,03,11.10
2016,03,28,13,04,11.10
2016,03,28,13,05,11.10
2016,03,28,13,06,11.10
2016,03,28,13,07,11.00
2016,03,28,13,08,11.00
2016,03,28,13,09,10.90
2016,03,28,13,10,10.80
2016,03,28,13,11,10.80
2016,03,28,13,12,10.80
2016,03,28,13,13,10.90
2016,03,28,13,14,10.90
2016,03,28,13,15,10.90
2016,03,28,13,16,11.00
2016,03,28,13,17,11.10
2016,03,28,13,18,11.10
2016,03,28,13,19,11.00
2016,03,28,13,20,10.80
2016,03,28,13,21,10.60
2016,03,28,13,22,10.60
2016,03,28,13,23,10.60
2016,03,28,13,24,10.50
2016,03,28,13,25,10.40
2016,03,28,13,26,10.30
2016,03,28,13,27,10.30
2016,03,28,13,28,10.30
2016,03,28,13,29,10.30
2016,03,28,13,30,10.30
2016,03,28,13,31,10.30
2016,03,28,13,32,10.40
2016,03,28,13,33,10.50
2016,03,28,13,34,10.50
2016,03,28,13,35,10.40
2016,03,28,13,36,10.40
2016,03,28,13,37,10.50
2016,03,28,13,38,10.60
2016,03,28,13,39,10.60
2016,03,28,13,40,10.40
2016,03,28,13,41,10.40
2016,03,28,13,42,10.40
2016,03,28,13,43,10.40
2016,03,28,13,44,10.50
2016,03,28,13,45,10.60
2016,03,28,13,46,10.70
2016,03,28,13,47,10.80
2016,03,28,13,48,10.60
2016,03,28,13,49,10.50
2016,03,28,13,50,10.40
2016,03,28,13,51,10.40
2016,03,28,13,52,10.50
2016,03,28,13,53,10.60
2016,03,28,13,54,10.60
2016,03,28,13,55,10.60
2016,03,28,13,56,10.60
2016,03,28,13,57,10.60
2016,03,28,13,58,10.60
2016,03,28,13,59,10.70
2016,03,28,14,00,10.80
2016,03,28,14,01,10.90
2016,03,28,14,02,11.00
2016,03,28,14,03,11.00
2016,03,28,14,04,10.90
2016,03,28,14,05,10.90
2016,03,28,14,06,10.90
2016,03,28,14,07,10.90
2016,03,28,14,08,10.90
2016,03,28,14,09,11.00
2016,03,28,14,10,11.10
2016,03,28,14,11,11.10
2016,03,28,14,12,11.20
2016,03,28,14,13,11.30
2016,03,28,14,14,11.30
2016,03,28,14,15,11.30
2016,03,28,14,16,11.30
2016,03,28,14,17,11.30
2016,03,28,14,18,11.30
2016,03,28,14,19,11.30
2016,03,28,14,20,11.40
2016,03,28,14,21,11.40
2016,03,28,14,22,11.30
2016,03,28,14,23,11.30
2016,03,28,14,24,11.30
2016,03,28,14,25,11.40
2016,03,28,14,26,11.60
2016,03,28,14,27,11.60
2016,03,28,14,28,11.70
2016,03,28,14,29,11.80
2016,03,28,14,30,11.80
2016,03,28,14,31,11.90
2016,03,28,14,32,12.00
2016,03,28,14,33,12.00
2016,03,28,14,34,12.00
2016,03,28,14,35,12.10
2016,03,28,14,36,12.20
2016,03,28,14,37,12.00
2016,03,28,14,38,11.80
2016,03,28,14,39,11.80
2016,03,28,14,40,11.80
2016,03,28,14,41,11.70
2016,03,28,14,42,11.40
2016,03,28,14,43,11.20
2016,03,28,14,44,11.20
2016,03,28,14,45,11.20
2016,03,28,14,46,11.20
2016,03,28,14,47,11.20
2016,03,28,14,48,11.00
2016,03,28,14,49,10.90
2016,03,28,14,50,10.80
2016,03,28,14,51,10.80
2016,03,28,14,52,10.70
2016,03,28,14,53,10.80
2016,03,28,14,54,10.90
2016,03,28,14,55,10.90
2016,03,28,14,56,11.00
2016,03,28,14,57,11.10
2016,03,28,14,58,11.20
2016,03,28,14,59,11.20
2016,03,28,15,00,11.20
2016,03,28,15,01,11.20
2016,03,28,15,02,11.10
2016,03,28,15,03,11.10
2016,03,28,15,04,11.10
2016,03,28,15,05,11.10
2016,03,28,15,06,11.20
2016,03,28,15,07,11.20
2016,03,28,15,08,11.20
2016,03,28,15,09,11.30
2016,03,28,15,10,11.20
2016,03,28,15,11,11.10
2016,03,28,15,12,11.00
2016,03,28,15,13,10.90
2016,03,28,15,14,10.80
2016,03,28,15,15,10.70
2016,03,28,15,16,10.60
2016,03,28,15,17,10.60
2016,03,28,15,18,10.60
2016,03,28,15,19,10.60
2016,03,28,15,20,10.60
2016,03,28,15,21,10.60
2016,03,28,15,22,10.60
2016,03,28,15,23,10.60
2016,03,28,15,24,10.60
2016,03,28,15,25,10.60
2016,03,28,15,26,10.60
2016,03,28,15,27,10.60
2016,03,28,15,28,10.60
2016,03,28,15,29,10.60
2016,03,28,15,30,10.80
2016,03,28,15,31,10.70
2016,03,28,15,32,10.70
2016,03,28,15,33,10.70
2016,03,28,15,34,10.80
2016,03,28,15,35,10.90
2016,03,28,15,36,10.90
2016,03,28,15,37,10.90
2016,03,28,15,38,10.90
2016,03,28,15,39,11.00
2016,03,28,15,40,11.10
2016,03,28,15,41,11.00
2016,03,28,15,42,10.90
2016,03,28,15,43,10.90
2016,03,28,15,44,10.90
2016,03,28,15,45,10.80
2016,03,28,15,46,10.70
2016,03,28,15,47,10.60
2016,03,28,15,48,10.60
2016,03,28,15,49,10.60
2016,03,28,15,50,10.60
2016,03,28,15,51,10.60
2016,03,28,15,52,10.60
2016,03,28,15,53,10.60
2016,03,28,15,54,10.60
2016,03,28,15,55,10.60
2016,03,28,15,56,10.70
2016,03,28,15,57,10.70
2016,03,28,15,58,10.60
2016,03,28,15,59,10.50
2016,03,28,16,00,10.50
2016,03,28,16,01,10.50
2016,03,28,16,02,10.60
2016,03,28,16,03,10.60
2016,03,28,16,04,10.60
2016,03,28,16,05,10.60
2016,03,28,16,06,10.70
2016,03,28,16,07,10.80
2016,03,28,16,08,10.90
2016,03,28,16,09,10.90
2016,03,28,16,10,11.00
2016,03,28,16,11,11.10
2016,03,28,16,12,11.10
2016,03,28,16,13,11.10
2016,03,28,16,14,11.00
2016,03,28,16,15,10.90
2016,03,28,16,16,10.80
2016,03,28,16,17,10.80
2016,03,28,16,18,10.80
2016,03,28,16,19,10.70
2016,03,28,16,20,10.70
2016,03,28,16,21,10.60
2016,03,28,16,22,10.60
2016,03,28,16,23,10.60
2016,03,28,16,24,10.60
2016,03,28,16,25,10.60
2016,03,28,16,26,10.60
2016,03,28,16,27,10.70
2016,03,28,16,28,10.70
2016,03,28,16,29,10.70
2016,03,28,16,30,10.70
2016,03,28,16,31,10.60
2016,03,28,16,32,10.60
2016,03,28,16,33,10.60
2016,03,28,16,34,10.60
2016,03,28,16,35,10.60
2016,03,28,16,36,10.60
2016,03,28,16,37,10.60
2016,03,28,16,38,10.70
2016,03,28,16,39,10.70
2016,03,28,16,40,10.70
2016,03,28,16,41,10.70
2016,03,28,16,42,10.70
2016,03,28,16,43,10.70
2016,03,28,16,44,10.70
2016,03,28,16,45,10.60
2016,03,28,16,46,10.60
2016,03,28,16,47,10.70
2016,03,28,16,48,10.60
2016,03,28,16,49,10.60
2016,03,28,16,50,10.70
2016,03,28,16,51,10.70
2016,03,28,16,52,10.80
2016,03,28,16,53,10.80
2016,03,28,16,54,10.90
2016,03,28,16,55,10.90
2016,03,28,16,56,11.00
2016,03,28,16,57,11.10
2016,03,28,16,58,11.10
2016,03,28,16,59,11.10
2016,03,28,17,00,11.00
2016,03,28,17,01,10.90
2016,03,28,17,02,10.90
2016,03,28,17,03,10.90
2016,03,28,17,04,10.90
2016,03,28,17,05,10.90
2016,03,28,17,06,10.90
2016,03,28,17,07,11.10
2016,03,28,17,08,11.10
2016,03,28,17,09,11.10
2016,03,28,17,10,11.20
2016,03,28,17,11,11.20
2016,03,28,17,12,11.20
2016,03,28,17,13,11.20
2016,03,28,17,14,11.30
2016,03,28,17,15,11.20
2016,03,28,17,16,11.10
2016,03,28,17,17,11.10
2016,03,28,17,18,11.00
2016,03,28,17,19,10.90
2016,03,28,17,20,10.90
2016,03,28,17,21,10.90
2016,03,28,17,22,10.90
2016,03,28,17,23,11.00
2016,03,28,17,24,11.10
2016,03,28,17,25,11.10
2016,03,28,17,26,11.20
2016,03,28,17,27,11.20
2016,03,28,17,28,11.30
2016,03,28,17,29,11.40
2016,03,28,17,30,11.40
2016,03,28,17,31,11.40
2016,03,28,17,32,11.60
2016,03,28,17,33,11.50
2016,03,28,17,34,11.40
2016,03,28,17,35,11.40
2016,03,28,17,36,11.40
2016,03,28,17,37,11.40
2016,03,28,17,38,11.40
2016,03,28,17,39,11.40
2016,03,28,17,40,11.40
2016,03,28,17,41,11.40
2016,03,28,17,42,11.40
2016,03,28,17,43,11.50
2016,03,28,17,44,11.60
2016,03,28,17,45,11.60
2016,03,28,17,46,11.60
2016,03,28,17,47,11.60
2016,03,28,17,48,11.60